AirNav   Duncan Aviation - Near you to keep you flying
 
 1129 users online  

KCGS College Park Airport
College Park, Maryland, USA

GOING TO COLLEGE PARK?


FAA INFORMATION EFFECTIVE 19 MAY 2022

Location

FAA Identifier: CGS
Lat/Long: 38-58-50.1000N 076-55-20.3000W
38-58.835000N 076-55.338333W
38.9805833,-76.9223056
(estimated)
Elevation: 48.4 ft. / 14.8 m (surveyed)
Variation: 11W (2000)
From city: 1 mile E of COLLEGE PARK, MD
Time zone: UTC -4 (UTC -5 during Standard Time)
Zip code: 20740

Airport Operations

Airport use: Open to the public
Activation date: 04/1940
Control tower: no
ARTCC: WASHINGTON CENTER
FSS: LEESBURG FLIGHT SERVICE STATION
NOTAMs facility: CGS (NOTAM-D service available)
Attendance: 0700-2200
Wind indicator: lighted
Segmented circle: yes
Lights: ACTVT MIRL RWY 15/33 - CTAF.
Beacon: white-green (lighted land airport)
Operates sunset to sunrise.

Airport Communications

CTAF/UNICOM: 122.975
WX AWOS-3: 121.225 (301-864-5497)
POTOMAC APPROACH: 125.65 ;DC FRZ 124.7
POTOMAC DEPARTURE: 125.65 ;DC FRZ 124.7
IRONS STAR: 126.4
WX ASOS at DCA (9 nm SW): 132.65 (703-418-1177)
WX AWOS-3 at FME (10 nm NE): 123.925
WX AWOS-3PT at GAI (16 nm NW): 128.275 (301-977-2971)
WX ASOS at BWI (17 nm NE): PHONE 410-691-1278

Nearby radio navigation aids

VOR radial/distance  VOR name  Freq  Var
DCAr045/9.0WASHINGTON VOR/DME111.0009W
ADWr356/10.7ANDREWS VORTAC113.1010W
BALr238/16.7BALTIMORE VORTAC115.1011W
OTTr343/18.5NOTTINGHAM VORTAC113.7010W
AMLr092/25.5ARMEL VOR/DME113.5008W
EMIr183/31.0WESTMINSTER VORTAC117.9008W
FDKr149/(33.4)FREDERICK VOR109.0008W

 
NDB name  Hdg/Dist  Freq  Var  ID
GEORGETOWN081/9.932309WGTN --. - -.
OXONN032/13.833211WDCA -.. -.-. .-
ELLICOTT211/19.637111WFND ..-. -. -..
DAVEE034/21.122309WDAA -.. .- .-

Airport Services

Fuel available: 100LL JET-A1+
Parking: tiedowns
Airframe service: NONE
Powerplant service: NONE
Bottled oxygen: NONE
Bulk oxygen: NONE

Runway Information

Runway 15/33

Dimensions: 2607 x 60 ft. / 795 x 18 m
Surface: asphalt, in good condition
Runway edge lights: medium intensity
RUNWAY 15  RUNWAY 33
Latitude: 38-58.995650N38-58.674748N
Longitude: 076-55.520488W076-55.154692W
Elevation: 48.4 ft.39.1 ft.
Traffic pattern: leftleft
Runway heading: 149 magnetic, 138 true329 magnetic, 318 true
Displaced threshold: 416 ft.201 ft.
Markings: nonprecision, in good conditionnonprecision, in good condition
Runway end identifier lights: nono
Touchdown point: yes, no lightsyes, no lights
Obstructions: 63 ft. trees, 712 ft. from runway, 8:1 slope to clear
+33 FT RAILROAD, 117 FM THR WITH OBS LTS.
59 ft. trees, 1202 ft. from runway, 52 ft. right of centerline, 16:1 slope to clear
+15 FT FENCE 87 FT R AT THR; -6 FT DITCH 65 FT L AT THR.

Airport Ownership and Management from official FAA records

Ownership: Publicly-owned
Owner: MNCPPC
6611 KENILWORTH AVENUE
RIVERDALE, MD 20737
Phone 301-699-2255
THE MARYLAND NATIONAL CAPITAL PARK & PLANNING CMSN.
Manager: LEE SOMMER
1909 CORPORAL FRANK SCOTT DRIVE
COLLEGE PARK, MD 20740
Phone 301-864-5844

Airport Operational Statistics

Aircraft based on the field: 36
Single engine airplanes: 31
Helicopters: 4
Gliders airplanes: 1
    
Aircraft operations: avg 60/week *
74% local general aviation
21% transient general aviation
4% military
<1% air taxi
* for 12-month period ending 09 September 2021

Additional Remarks

NO TKOFS 2200-0700; LNDG ONLY.
TSNT PRKG: FIRST 4 HRS FREE; FEE AFT, WAIVED W/MIN FUEL PURCHASE; OVNGT FEE.
HEL RAMP FEE; WAIVED IF UNDER 3500 LBS OR MIN FUEL PURCHASE.
ACFT HANDLING FEE IF RELOCATION TO/FROM FUEL AREA RQRD BY ARPT PSNL.
BLDG 0.1 NM S OF ARPT 23 FT AGL LGTD.
NO ACFT OVR 12500 LBS MFR GWT; HELS ONLY WITH 24 HR PPR - CALL AMGR 301-864-5844.
NOISE ABATEMENT PROCEDURES IN EFFECT CTC AMGR 301-864-5844.
AER 15 HEAVY SMOKE & FIREFIGHTING TRAINING OPNS INTERMITTENTLY IN PROGRESS.
NO STUDENT TGL OR SOLO OPNS PERMITTED.
DEER AND OTHER WILDLIFE ON & INVOF ARPT.
COMPLIANCE WITH 14CFR SECTION 93.335 IS REQUIRED BEFORE PILOTS MAY OPERATE TO/FROM THIS AIRPORT.
FOR CD CTC POTOMAC APCH AT 866-599-3874.

Instrument Procedures

NOTE: All procedures below are presented as PDF files. If you need a reader for these files, you should download the free Adobe Reader.

NOT FOR NAVIGATION. Please procure official charts for flight.
FAA instrument procedures published for use from 19 May 2022 at 0901Z to 16 June 2022 at 0900Z.

 
IAPs - Instrument Approach Procedures
RNAV (GPS)-A   download (155KB)
RNAV (GPS)-B   download (150KB)
NOTE: Special Take-Off Minimums/Departure Procedures apply   download (366KB)

Other nearby airports with instrument procedures:

W00 - Freeway Airport (7 nm E)
KDCA - Ronald Reagan Washington National Airport (9 nm SW)
KFME - Tipton Airport (10 nm NE)
KADW - Joint Base Andrews (11 nm S)
W32 - Washington Executive Airport/Hyde Field (14 nm S)
KVKX - Potomac Airfield (14 nm S)
KGAI - Montgomery County Airpark (16 nm NW)
KBWI - Baltimore/Washington International Thurgood Marshall Airport (17 nm NE)
KANP - Lee Airport (17 nm E)
W50 - Davis Airport (19 nm NW)
 
Loc | Ops | Rwys | IFR | FBO | Links
Com | Nav | Svcs | Stats | Notes
Area around KCGS (College Park Airport)
 
Road maps at: MapQuest Bing Google
 
Aerial photo
WARNING: Photo may not be current or correct
Aerial photo of KCGS (College Park Airport)
Photo taken 19-Oct-2016
looking north.

Do you have a better or more recent aerial photo of College Park Airport that you would like to share? If so, please send us your photo.

 
Sectional chart

 
Airport distance calculator
Flying to College Park Airport? Find the distance to fly.

From to KCGS

Sunrise and sunset
Times for 26-May-2022
 Local
(UTC-4)
 Zulu
(UTC)
Morning civil twilight05:1709:17
Sunrise05:4809:48
Sunset20:2200:22
Evening civil twilight20:5300:53

Current date and time
Zulu (UTC)  27-May-2022 00:14:26
Local (UTC-4)  26-May-2022 20:14:26
 
METAR
KCGS 262339Z AUTO 15005KT 10SM OVC012 21/19 A3009 RMK AO1 T02050193
KDCA 
9nm SW 
262352Z 14009KT 10SM OVC015 22/18 A3010 RMK AO2 SLP191 T02170178 10228 20211 55007
KFME 
10nm NE 
262339Z AUTO 14005KT 10SM OVC011 20/20 A3013 RMK AO1
KADW 
10nm S 
262356Z 14006KT 10SM OVC008 20/18 A3008 RMK AO2A SLP192 T01970180 10225 20197 57010 $
KBWI 
16nm NE 
262354Z 15005KT 10SM SCT011 OVC016 21/18 A3009 RMK AO2 SLP190 T02110183 10228 20206 56009
KGAI 
16nm NW 
262356Z AUTO 13008KT 10SM OVC010 20/18 A3010 RMK AO2 SLP204 60000 T02000183 10222 20194 58013
KDAA 
20nm SW 
262356Z AUTO 17003KT 10SM OVC014 21/19 A3010 RMK AO2 SLP195 T02110185 10221 20203 57008 $
TAF
KDCA 
9nm SW 
262106Z 2621/2724 18005KT P6SM OVC019 FM262300 14006KT P6SM OVC010 FM270300 14005KT 6SM BR OVC008 FM271500 18010G18KT P6SM -SHRA OVC015 FM271800 19011G19KT 6SM SHRA VCTS OVC040CB FM272300 17010KT 6SM -SHRA OVC035
KADW 
10nm S 
262330Z 2623/2723 14008KT 9000 -DZ SCT006 OVC010 QNH3005INS BECMG 2623/2624 14008KT 4800 -DZ BR OVC006 QNH3002INS BECMG 2702/2703 15006KT 1600 -DZ BR OVC003 QNH2990INS BECMG 2712/2713 17008KT 4800 BR BKN006 OVC010 QNH2988INS BECMG 2715/2716 16009KT 8000 BR SCT007 OVC015 QNH2985INS BECMG 2717/2718 16012G18KT 9000 -SHRA BKN020 OVC030 510073 QNH2971INS TEMPO 2718/2723 VRB25G35KT 8000 -TSRA BKN020CB OVC030 TX23/2717Z TN18/2708Z
KBWI 
16nm NE 
262106Z 2621/2724 14006KT P6SM BKN019 OVC050 FM270000 11005KT P6SM OVC010 FM270200 15004KT 6SM BR OVC008 FM271400 19008KT P6SM OVC010 FM271600 19010G18KT P6SM OVC015 FM271900 17011G20KT 6SM SHRA VCTS OVC025CB FM272300 17010KT 6SM -SHRA OVC025
KDAA 
20nm SW 
262000Z 2620/2802 16006KT 9999 SCT007 OVC012 QNH3010INS TEMPO 2620/2623 9000 -DZ OVC016 BECMG 2622/2623 VRB06KT 9000 -DZ BR SCT006 OVC010 QNH3007INS TEMPO 2623/2703 6000 -DZ BR BKN006 BECMG 2702/2703 VRB04KT 4800 -DZ BR BKN005 OVC010 QNH2997INS BECMG 2710/2711 VRB06KT 8000 -DZ BR OVC007 QNH2990INS BECMG 2716/2717 15006KT 9000 -SHRA BKN016 OVC024 510053 QNH2983INS TEMPO 2717/2719 20020G30KT 4800 -TSRA BKN016CB OVC024 BECMG 2718/2719 17012G18KT 9000 -SHRA SCT016 BKN024 OVC035 510053 QNH2970INS TEM
NOTAMs
Click for the latest NOTAMs
NOTAMs are issued by the DoD/FAA and will open in a separate window not controlled by AirNav.

 

 
 

FBO, Fuel Providers, and Aircraft Ground Support

  
 Business Name 
 
 Contact 
 
 Services / Description 
 
Fuel Prices
 
Comments
  
College Park Airport 301-864-5844
no information available

If you are affiliated with College Park Airport and would like to show here your services, contact info, web link, logo, and more, click here
100LL Jet A
FS --- $6.70 
PS $6.10 --- 
 Updated 19-May-2022
 
   1 read write
FS=Full service
PS=Pump service
Update Fuel Prices
 

Getting Around: Taxi, Limo, Rental Cars, Mass Transit

  
 Business Name 
 
 Contact 
 
Services / Description
 
Comments
  
Metrorail [web site]
no information available

If you are affiliated with Metrorail and would like to show here your services, contact info, web link, logo, and more, click here
 
   write
 

Things to do: Attractions on or near the airport

  
 Business Name 
 
 Contact 
 
 Services / Description 
 
Distance
 
Comments
  
College Park Aviation Museum 301-864-6029
no information available

If you are affiliated with College Park Aviation Museum and would like to show here your services, contact info, web link, logo, and more, click here
on airport  
   write
 

Would you like to see your business listed on this page?

 If your business provides an interesting product or service to pilots, flight crews, aircraft, or users of the College Park Airport, you should consider listing it here.  To start the listing process, click on the button below
 
Add a business
 

Other Pages about College Park Airport

www.collegeparkairport.org
www.pgparks.com/...
 
Update a link
 
Copyright © AirNav, LLC. All rights reserved. Privacy Policy  Contact